FLX710 SBBV-SBMQ

Flight info

Callsign FLX710
Flight time 1h 39m
Altitude 41000
Route ANBIX DCT NEVDU DCT TIKBA DCT ENVUT DCT VUMBO
Aircraft E190/M-SDE3GILORVW/S

Departure

Time 2026-05-04 16:04
Airport Atlas Brasil Cantanhede International Airport (SBBV)

Arrival

Time 2026-05-04 17:44
Airport Macapá - Alberto Alcolumbre International Airport (SBMQ)
Time Latitude Longitude Altitude Speed Heading
2026-05-04 15:46 2.84228 -60.69200 273 ft 0 kts 152°
2026-05-04 15:56 2.84228 -60.69201 274 ft 0 kts 152°
2026-05-04 15:57 2.84231 -60.69202 274 ft 2 kts 152°
2026-05-04 15:57 2.84244 -60.69209 274 ft 2 kts 152°
2026-05-04 15:57 2.84253 -60.69213 274 ft 2 kts 152°
2026-05-04 15:57 2.84265 -60.69222 274 ft 2 kts 127°
2026-05-04 15:58 2.84272 -60.69235 274 ft 2 kts 109°
2026-05-04 15:58 2.84275 -60.69250 274 ft 2 kts 89°
2026-05-04 15:58 2.84273 -60.69265 274 ft 1 kts 69°
2026-05-04 15:58 2.84270 -60.69271 274 ft 1 kts 62°
2026-05-04 15:59 2.84269 -60.69273 274 ft 0 kts 64°
2026-05-04 16:00 2.84269 -60.69272 274 ft 0 kts 64°
2026-05-04 16:00 2.84272 -60.69265 274 ft 2 kts 64°
2026-05-04 16:01 2.84287 -60.69240 273 ft 5 kts 46°
2026-05-04 16:01 2.84330 -60.69246 273 ft 8 kts 302°
2026-05-04 16:01 2.84310 -60.69309 274 ft 11 kts 243°
2026-05-04 16:01 2.84267 -60.69391 274 ft 15 kts 243°
2026-05-04 16:02 2.84214 -60.69495 271 ft 18 kts 243°
2026-05-04 16:02 2.84153 -60.69615 270 ft 20 kts 244°
2026-05-04 16:02 2.84019 -60.69882 270 ft 22 kts 244°
2026-05-04 16:03 2.83965 -60.69987 267 ft 9 kts 247°
2026-05-04 16:03 2.83992 -60.70034 267 ft 9 kts 331°
2026-05-04 16:03 2.84054 -60.70068 267 ft 10 kts 336°
2026-05-04 16:03 2.84105 -60.70034 269 ft 9 kts 62°
2026-05-04 16:04 2.84149 -60.69947 270 ft 37 kts 63°
2026-05-04 16:04 2.84873 -60.68512 661 ft 160 kts 65°
2026-05-04 16:04 2.85428 -60.67433 1196 ft 188 kts 63°
2026-05-04 16:05 2.86061 -60.66208 1920 ft 207 kts 64°
2026-05-04 16:05 2.86251 -60.64825 2927 ft 213 kts 104°
2026-05-04 16:05 2.83910 -60.63364 5037 ft 227 kts 174°
2026-05-04 16:06 2.82329 -60.63357 5996 ft 227 kts 173°
2026-05-04 16:06 2.78070 -60.63305 8224 ft 237 kts 173°
2026-05-04 16:07 2.75856 -60.63271 9286 ft 242 kts 174°
2026-05-04 16:07 2.70769 -60.63187 11612 ft 249 kts 174°
2026-05-04 16:08 2.69032 -60.63159 12348 ft 252 kts 174°
2026-05-04 16:08 2.63689 -60.63070 14475 ft 261 kts 174°
2026-05-04 16:09 2.60021 -60.63008 15721 ft 270 kts 174°
2026-05-04 16:09 2.56202 -60.62945 16954 ft 277 kts 175°
2026-05-04 16:10 2.52302 -60.62880 18182 ft 283 kts 175°
2026-05-04 16:11 2.46357 -60.62781 20079 ft 287 kts 176°
2026-05-04 16:11 2.44355 -60.62748 20675 ft 289 kts 175°
2026-05-04 16:12 2.38264 -60.62646 22412 ft 293 kts 176°
2026-05-04 16:12 2.32072 -60.62543 24008 ft 300 kts 176°
2026-05-04 16:13 2.27887 -60.62473 25021 ft 304 kts 176°
2026-05-04 16:13 2.23593 -60.62401 25990 ft 308 kts 176°
2026-05-04 16:14 2.19302 -60.62330 26927 ft 312 kts 176°
2026-05-04 16:14 2.14908 -60.62358 27803 ft 315 kts 174°
2026-05-04 16:15 2.08240 -60.62152 29116 ft 322 kts 176°
2026-05-04 16:16 2.03758 -60.62072 29961 ft 325 kts 176°
2026-05-04 16:16 1.97265 -60.60361 31124 ft 325 kts 143°
2026-05-04 16:17 1.94247 -60.57062 31861 ft 326 kts 117°
2026-05-04 16:18 1.93173 -60.50369 32829 ft 336 kts 79°
2026-05-04 16:18 1.93818 -60.48094 33218 ft 339 kts 73°
2026-05-04 16:19 1.96029 -60.41349 34320 ft 346 kts 73°
2026-05-04 16:19 1.97224 -60.36672 34954 ft 349 kts 89°
2026-05-04 16:20 1.96115 -60.29514 35987 ft 352 kts 104°
2026-05-04 16:20 1.95090 -60.24714 36642 ft 356 kts 104°
2026-05-04 16:21 1.93540 -60.17401 37523 ft 364 kts 104°
2026-05-04 16:22 1.92485 -60.12423 38109 ft 368 kts 104°
2026-05-04 16:22 1.90887 -60.04879 39017 ft 375 kts 104°
2026-05-04 16:23 1.89251 -59.97158 39844 ft 383 kts 103°
2026-05-04 16:24 1.87022 -59.86641 40983 ft 390 kts 102°
2026-05-04 16:25 1.85907 -59.81380 41011 ft 394 kts 102°
2026-05-04 16:26 1.83565 -59.70332 41008 ft 422 kts 102°
2026-05-04 16:26 1.81693 -59.61507 41009 ft 443 kts 102°
2026-05-04 16:27 1.80405 -59.55436 41010 ft 454 kts 102°
2026-05-04 16:28 1.78413 -59.46044 41004 ft 464 kts 102°
2026-05-04 16:29 1.73749 -59.24073 41005 ft 462 kts 102°
2026-05-04 16:31 1.70419 -59.08393 41011 ft 461 kts 102°
2026-05-04 16:32 1.66418 -58.89567 41017 ft 464 kts 102°
2026-05-04 16:33 1.63747 -58.77000 41012 ft 463 kts 102°
2026-05-04 16:34 1.61740 -58.67562 41013 ft 463 kts 102°
2026-05-04 16:35 1.57724 -58.48683 41022 ft 465 kts 102°
2026-05-04 16:36 1.55710 -58.39217 41011 ft 465 kts 102°
2026-05-04 16:37 1.53700 -58.29773 41001 ft 465 kts 102°
2026-05-04 16:38 1.51010 -58.17139 40992 ft 464 kts 102°
2026-05-04 16:39 1.47654 -58.01378 41010 ft 465 kts 102°
2026-05-04 16:40 1.44965 -57.88757 40999 ft 466 kts 102°
2026-05-04 16:41 1.41599 -57.72963 40992 ft 465 kts 102°
2026-05-04 16:43 1.38240 -57.57200 40980 ft 465 kts 102°
2026-05-04 16:43 1.36219 -57.47726 40979 ft 466 kts 102°
2026-05-04 16:45 1.32173 -57.28754 40974 ft 466 kts 102°
2026-05-04 16:46 1.28809 -57.12989 40969 ft 465 kts 102°
2026-05-04 16:47 1.26116 -57.00371 40967 ft 466 kts 102°
2026-05-04 16:48 1.23419 -56.87736 40976 ft 465 kts 102°
2026-05-04 16:49 1.20721 -56.75104 40980 ft 465 kts 102°
2026-05-04 16:50 1.18024 -56.62472 40974 ft 466 kts 102°
2026-05-04 16:51 1.16002 -56.53011 40970 ft 466 kts 102°
2026-05-04 16:52 1.13294 -56.40336 40975 ft 468 kts 102°
2026-05-04 16:53 1.11262 -56.30826 40985 ft 468 kts 102°
2026-05-04 16:54 1.08552 -56.18148 40983 ft 466 kts 102°
2026-05-04 16:55 1.03597 -55.99402 40987 ft 468 kts 108°
2026-05-04 16:56 0.98599 -55.83927 40976 ft 469 kts 108°
2026-05-04 16:57 0.95611 -55.74674 40974 ft 468 kts 108°
2026-05-04 16:58 0.91609 -55.62286 40977 ft 469 kts 108°
2026-05-04 17:00 0.85619 -55.43744 40990 ft 469 kts 108°
2026-05-04 17:01 0.80616 -55.28260 40977 ft 469 kts 108°
2026-05-04 17:02 0.76612 -55.15870 40982 ft 469 kts 108°
2026-05-04 17:03 0.73613 -55.06591 40987 ft 469 kts 108°
2026-05-04 17:03 0.70602 -54.97275 40991 ft 470 kts 108°
2026-05-04 17:04 0.66603 -54.84903 40975 ft 470 kts 108°
2026-05-04 17:05 0.62607 -54.72539 40968 ft 468 kts 108°
2026-05-04 17:06 0.59596 -54.63229 40962 ft 469 kts 108°
2026-05-04 17:07 0.56938 -54.55008 40957 ft 470 kts 108°
2026-05-04 17:07 0.54588 -54.47739 40956 ft 469 kts 108°
2026-05-04 17:08 0.51581 -54.38438 40954 ft 470 kts 108°
2026-05-04 17:09 0.49583 -54.32261 40955 ft 470 kts 108°
2026-05-04 17:09 0.47586 -54.26086 40953 ft 470 kts 108°
2026-05-04 17:10 0.42582 -54.10611 40956 ft 469 kts 108°
2026-05-04 17:11 0.40578 -54.04414 40952 ft 469 kts 108°
2026-05-04 17:11 0.38597 -53.98288 40942 ft 457 kts 108°
2026-05-04 17:12 0.37622 -53.95274 40941 ft 456 kts 108°
2026-05-04 17:13 0.32742 -53.80188 40945 ft 457 kts 108°
2026-05-04 17:14 0.28835 -53.68109 40939 ft 458 kts 108°
2026-05-04 17:15 0.25963 -53.58993 40935 ft 455 kts 103°
2026-05-04 17:15 0.24485 -53.53022 40933 ft 439 kts 104°
2026-05-04 17:16 0.22979 -53.47075 40649 ft 445 kts 104°
2026-05-04 17:16 0.20727 -53.38202 39211 ft 436 kts 105°
2026-05-04 17:17 0.19992 -53.35308 38739 ft 434 kts 106°
2026-05-04 17:17 0.17761 -53.26521 37312 ft 436 kts 105°
2026-05-04 17:18 0.17017 -53.23591 36830 ft 436 kts 105°
2026-05-04 17:18 0.15530 -53.17732 35866 ft 437 kts 105°
2026-05-04 17:19 0.14040 -53.11861 34899 ft 439 kts 105°
2026-05-04 17:19 0.12534 -53.05930 33920 ft 442 kts 105°
2026-05-04 17:20 0.11018 -52.99958 32936 ft 444 kts 104°
2026-05-04 17:20 0.09504 -52.93994 31978 ft 446 kts 104°
2026-05-04 17:20 0.08750 -52.91022 31489 ft 446 kts 104°
2026-05-04 17:21 0.07228 -52.85029 30507 ft 447 kts 104°
2026-05-04 17:21 0.05718 -52.79080 29525 ft 437 kts 104°
2026-05-04 17:22 0.04974 -52.76150 29044 ft 432 kts 104°
2026-05-04 17:22 0.04241 -52.73265 28570 ft 429 kts 104°
2026-05-04 17:23 0.02077 -52.64737 27178 ft 417 kts 104°
2026-05-04 17:23 0.01375 -52.61971 26725 ft 414 kts 104°
2026-05-04 17:23 -0.00025 -52.56459 25818 ft 407 kts 104°
2026-05-04 17:24 -0.00720 -52.53721 25367 ft 404 kts 104°
2026-05-04 17:24 -0.02757 -52.45697 24051 ft 393 kts 104°
2026-05-04 17:25 -0.03420 -52.43087 23622 ft 389 kts 104°
2026-05-04 17:25 -0.04733 -52.37912 22775 ft 382 kts 104°
2026-05-04 17:26 -0.06039 -52.32771 21943 ft 379 kts 104°
2026-05-04 17:26 -0.07955 -52.25223 20712 ft 372 kts 104°
2026-05-04 17:27 -0.09209 -52.20282 19901 ft 368 kts 103°
2026-05-04 17:27 -0.10455 -52.15377 19098 ft 361 kts 103°
2026-05-04 17:28 -0.11682 -52.10540 18291 ft 359 kts 103°
2026-05-04 17:29 -0.13510 -52.03340 17113 ft 354 kts 103°
2026-05-04 17:29 -0.15303 -51.96279 15950 ft 346 kts 103°
2026-05-04 17:30 -0.17056 -51.89370 14814 ft 338 kts 103°
2026-05-04 17:31 -0.18205 -51.84845 14070 ft 334 kts 103°
2026-05-04 17:31 -0.19904 -51.78153 12954 ft 328 kts 103°
2026-05-04 17:32 -0.21020 -51.73755 12221 ft 324 kts 103°
2026-05-04 17:33 -0.22653 -51.67323 11150 ft 310 kts 103°
2026-05-04 17:33 -0.23181 -51.65244 10814 ft 301 kts 103°
2026-05-04 17:34 -0.24667 -51.59389 9850 ft 281 kts 103°
2026-05-04 17:34 -0.24989 -51.57493 9529 ft 274 kts 85°
2026-05-04 17:35 -0.22503 -51.52354 8608 ft 275 kts 63°
2026-05-04 17:35 -0.20605 -51.49037 7997 ft 272 kts 62°
2026-05-04 17:35 -0.19673 -51.47413 7700 ft 270 kts 62°
2026-05-04 17:36 -0.18734 -51.45778 7398 ft 268 kts 62°
2026-05-04 17:36 -0.17811 -51.44171 7102 ft 267 kts 62°
2026-05-04 17:36 -0.16886 -51.42562 6811 ft 267 kts 62°
2026-05-04 17:36 -0.15963 -51.40955 6505 ft 267 kts 61°
2026-05-04 17:37 -0.15044 -51.39354 6213 ft 264 kts 61°
2026-05-04 17:37 -0.14134 -51.37771 5964 ft 260 kts 61°
2026-05-04 17:37 -0.13252 -51.36237 5691 ft 250 kts 61°
2026-05-04 17:37 -0.12392 -51.34741 5422 ft 241 kts 61°
2026-05-04 17:38 -0.11578 -51.33323 5170 ft 234 kts 61°
2026-05-04 17:38 -0.10775 -51.31926 4911 ft 227 kts 61°
2026-05-04 17:38 -0.10003 -51.30584 4663 ft 220 kts 60°
2026-05-04 17:38 -0.09197 -51.29317 4486 ft 211 kts 58°
2026-05-04 17:39 -0.07655 -51.26929 4059 ft 198 kts 58°
2026-05-04 17:39 -0.06916 -51.25783 3866 ft 193 kts 57°
2026-05-04 17:39 -0.06202 -51.24677 3651 ft 189 kts 57°
2026-05-04 17:40 -0.05495 -51.23580 3538 ft 183 kts 57°
2026-05-04 17:40 -0.04811 -51.22516 3488 ft 184 kts 57°
2026-05-04 17:40 -0.04090 -51.21401 3140 ft 190 kts 57°
2026-05-04 17:40 -0.03382 -51.20305 2852 ft 188 kts 57°
2026-05-04 17:41 -0.02678 -51.19216 2611 ft 185 kts 57°
2026-05-04 17:41 -0.01980 -51.18134 2373 ft 184 kts 57°
2026-05-04 17:41 -0.01282 -51.17053 2130 ft 184 kts 57°
2026-05-04 17:41 -0.00593 -51.15985 1991 ft 184 kts 57°
2026-05-04 17:42 0.00099 -51.14912 1978 ft 184 kts 57°
2026-05-04 17:42 0.00795 -51.13835 1923 ft 185 kts 57°
2026-05-04 17:42 0.01467 -51.12795 1700 ft 164 kts 57°
2026-05-04 17:42 0.02050 -51.11891 1399 ft 149 kts 57°
2026-05-04 17:43 0.02594 -51.11050 1089 ft 138 kts 57°
2026-05-04 17:43 0.03099 -51.10269 799 ft 131 kts 57°
2026-05-04 17:43 0.03594 -51.09506 523 ft 131 kts 57°
2026-05-04 17:43 0.04072 -51.08757 276 ft 126 kts 57°
2026-05-04 17:44 0.04562 -51.08000 75 ft 126 kts 58°
2026-05-04 17:44 0.04991 -51.07332 58 ft 90 kts 57°
2026-05-04 17:44 0.05210 -51.06993 58 ft 27 kts 57°
2026-05-04 17:44 0.05227 -51.06914 57 ft 9 kts 136°
2026-05-04 17:45 0.05193 -51.06890 56 ft 5 kts 147°
2026-05-04 17:45 0.05157 -51.06866 56 ft 7 kts 147°
2026-05-04 17:45 0.05108 -51.06836 55 ft 4 kts 150°
2026-05-04 17:45 0.05100 -51.06832 55 ft 0 kts 152°
2026-05-04 17:46 0.05090 -51.06829 55 ft 2 kts 166°
2026-05-04 17:46 0.05065 -51.06817 54 ft 5 kts 146°
2026-05-04 17:47 0.05045 -51.06804 54 ft 0 kts 146°